WX6HNX-6 Weather Reports


Display with metric or nautical units.
time (UTC)temp
F
wind
direction
speed
MPH
gust
MPH
rain 1hr
in
rain 24hr
in
rain mn
in
humidity
%
barometer
mb
20260508091044 66 0 0.0 1.0 0.00 0.00 0.00 69 1015.2
20260508090544 66 0 0.0 1.0 0.00 0.00 0.00 69 1015.2
20260508085820 67 305 2.0 4.0 0.00 0.00 0.00 68 1015.3
20260508085320 67 304 1.0 5.0 0.00 0.00 0.00 67 1015.3
20260508084821 67 301 3.0 7.0 0.00 0.00 0.00 67 1015.3
20260508084320 67 303 4.0 7.0 0.00 0.00 0.00 66 1015.3
20260508083821 68 309 4.0 5.0 0.00 0.00 0.00 66 1015.3
20260508083153 68 312 4.0 7.0 0.00 0.00 0.00 66 1015.3
20260508082653 68 309 4.0 7.0 0.00 0.00 0.00 66 1015.3
20260508082152 68 306 4.0 7.0 0.00 0.00 0.00 66 1015.3
20260508081652 68 295 4.0 7.0 0.00 0.00 0.00 66 1015.4
20260508081152 68 303 4.0 7.0 0.00 0.00 0.00 65 1015.4
20260508080651 69 322 3.0 8.0 0.00 0.00 0.00 65 1015.4
20260508080151 69 317 4.0 8.0 0.00 0.00 0.00 64 1015.4
20260508075652 69 325 4.0 8.0 0.00 0.00 0.00 64 1015.4
20260508075152 69 329 4.0 8.0 0.00 0.00 0.00 64 1015.4
20260508074652 69 337 4.0 6.0 0.00 0.00 0.00 64 1015.5
20260508074154 69 337 3.0 6.0 0.00 0.00 0.00 64 1015.4
20260508073652 70 340 3.0 6.0 0.00 0.00 0.00 64 1015.4
20260508073152 70 349 4.0 7.0 0.00 0.00 0.00 64 1015.4
20260508072652 70 332 4.0 8.0 0.00 0.00 0.00 64 1015.4
20260508072151 70 340 4.0 8.0 0.00 0.00 0.00 64 1015.4
20260508071653 70 333 4.0 8.0 0.00 0.00 0.00 64 1015.3
20260508071153 70 338 4.0 8.0 0.00 0.00 0.00 65 1015.3
20260508070232 70 357 4.0 10.0 0.00 0.00 0.00 66 1015.3
20260508065732 69 343 4.0 10.0 0.00 0.00 0.00 66 1015.3
20260508065232 69 347 4.0 8.0 0.00 0.00 0.00 67 1015.3
20260508064732 69 343 3.0 8.0 0.00 0.00 0.00 67 1015.2
20260508063934 69 349 4.0 6.0 0.00 0.00 0.00 67 1015.3
20260508063433 69 352 3.0 6.0 0.00 0.00 0.00 67 1015.3
20260508062933 69 16 3.0 7.0 0.00 0.00 0.00 67 1015.3
20260508062433 69 9 4.0 7.0 0.00 0.00 0.00 67 1015.2
20260508061933 69 32 3.0 5.0 0.00 0.00 0.00 65 1015.3
20260508061434 70 32 2.0 3.0 0.00 0.00 0.00 63 1015.3
20260508060935 70 31 1.0 4.0 0.00 0.00 0.00 64 1015.3
20260508060433 70 31 2.0 5.0 0.00 0.00 0.00 66 1015.3
20260508055933 71 33 3.0 5.0 0.00 0.00 0.00 66 1015.3
20260508055433 71 36 3.0 4.0 0.00 0.00 0.00 65 1015.3
20260508054933 71 35 3.0 4.0 0.00 0.00 0.00 65 1015.4
20260508054433 71 0 0.0 0.0 0.00 0.00 0.00 64 1015.4
20260508053933 71 0 0.0 0.0 0.00 0.00 0.00 63 1015.4
20260508053433 71 0 0.0 0.0 0.00 0.00 0.00 63 1015.4
20260508052933 72 0 0.0 0.0 0.00 0.00 0.00 63 1015.3
20260508052433 72 0 0.0 0.0 0.00 0.00 0.00 61 1015.4
20260508051933 72 0 0.0 0.0 0.00 0.00 0.00 61 1015.3
20260508051433 72 0 0.0 2.0 0.00 0.00 0.00 60 1015.3
20260508050933 73 0 0.0 3.0 0.00 0.00 0.00 60 1015.3
20260508050433 73 34 1.0 3.0 0.00 0.00 0.00 61 1015.3
20260508045433 73 35 2.0 4.0 0.00 0.00 0.00 60 1015.2
20260508044933 73 35 2.0 4.0 0.00 0.00 0.00 60 1015.1
20260508043946 73 0 0.0 4.0 0.00 0.00 0.00 57 1015.0
20260508043447 74 0 0.0 4.0 0.00 0.00 0.00 53 1015.0
20260508042946 75 0 0.0 0.0 0.00 0.00 0.00 56 1015.0
20260508042447 75 0 0.0 0.0 0.00 0.00 0.00 58 1014.9
20260508041946 75 0 0.0 0.0 0.00 0.00 0.00 59 1014.9
20260508041446 75 0 0.0 0.0 0.00 0.00 0.00 59 1014.7
20260508040946 75 0 0.0 0.0 0.00 0.00 0.00 58 1014.7
20260508040447 75 0 0.0 0.0 0.00 0.00 0.00 56 1014.7
20260508035946 76 0 0.0 1.0 0.00 0.00 0.00 58 1014.6
20260508035447 76 0 0.0 3.0 0.00 0.00 0.00 58 1014.6
20260508034946 76 34 1.0 3.0 0.00 0.00 0.00 58 1014.5
20260508034446 77 34 2.0 3.0 0.00 0.00 0.00 57 1014.4
20260508033946 77 34 2.0 3.0 0.00 0.00 0.00 56 1014.3
20260508033446 77 34 2.0 4.0 0.00 0.00 0.00 55 1014.2
20260508032947 78 35 3.0 4.0 0.00 0.00 0.00 54 1014.2
20260508032446 78 35 2.0 4.0 0.00 0.00 0.00 54 1014.1
20260508031946 78 35 3.0 5.0 0.00 0.00 0.00 53 1014.0
20260508031446 78 35 3.0 5.0 0.00 0.00 0.00 53 1013.9
20260508030946 79 35 3.0 4.0 0.00 0.00 0.00 52 1013.9
20260508030446 79 34 3.0 4.0 0.00 0.00 0.00 51 1013.9
20260508025948 80 35 3.0 4.0 0.00 0.00 0.00 50 1013.7
20260508025055 81 35 3.0 6.0 0.00 0.00 0.00 48 1013.7
20260508024556 81 35 4.0 6.0 0.00 0.00 0.00 48 1013.6
20260508024055 81 36 3.0 6.0 0.00 0.00 0.00 47 1013.5
20260508023555 82 32 4.0 6.0 0.00 0.00 0.00 46 1013.5
20260508023055 82 32 4.0 7.0 0.00 0.00 0.00 45 1013.4
20260508022555 83 26 4.0 8.0 0.00 0.00 0.00 44 1013.4
20260508022055 83 27 5.0 8.0 0.00 0.00 0.00 44 1013.4
20260508021555 84 33 4.0 9.0 0.00 0.00 0.00 43 1013.4
20260508021055 84 28 3.0 9.0 0.00 0.00 0.00 43 1013.4
20260508020555 84 29 5.0 8.0 0.00 0.00 0.00 43 1013.3
20260508020056 84 30 4.0 9.0 0.00 0.00 0.00 43 1013.3
20260508015556 85 37 3.0 9.0 0.00 0.00 0.00 43 1013.3
20260508014501 85 24 5.0 11.0 0.00 0.00 0.00 41 1013.3
20260508014002 86 28 4.0 11.0 0.00 0.00 0.00 41 1013.3
20260508013501 86 22 5.0 10.0 0.00 0.00 0.00 41 1013.4
20260508012501 86 13 6.0 12.0 0.00 0.00 0.00 40 1013.3
20260508012002 86 14 5.0 11.0 0.00 0.00 0.00 40 1013.3
20260508011502 86 25 5.0 10.0 0.00 0.00 0.00 41 1013.3
20260508011004 86 13 6.0 11.0 0.00 0.00 0.00 39 1013.3
20260508010501 86 24 5.0 11.0 0.00 0.00 0.00 39 1013.3
20260508010001 87 18 6.0 12.0 0.00 0.00 0.00 39 1013.4
20260508005501 87 20 7.0 12.0 0.00 0.00 0.00 40 1013.4
20260508005002 87 16 6.0 12.0 0.00 0.00 0.00 39 1013.4
20260508004501 87 14 6.0 11.0 0.00 0.00 0.00 39 1013.4
20260508004003 87 22 6.0 12.0 0.00 0.00 0.00 39 1013.5
20260508003503 87 20 6.0 12.0 0.00 0.00 0.00 39 1013.5
20260508003001 87 23 6.0 12.0 0.00 0.00 0.00 39 1013.5
20260508002501 87 22 6.0 12.0 0.00 0.00 0.00 39 1013.5
20260508002001 87 38 6.0 12.0 0.00 0.00 0.00 39 1013.5
20260508001502 87 14 4.0 13.0 0.00 0.00 0.00 40 1013.6
20260508001003 87 36 6.0 13.0 0.00 0.00 0.00 39 1013.6
20260508000503 87 31 5.0 12.0 0.00 0.00 0.00 39 1013.6
20260508000002 87 28 5.0 12.0 0.00 0.00 0.00 41 1013.7
20260507235501 88 40 5.0 10.0 0.00 0.00 0.00 39 1013.7
20260507235002 88 34 5.0 11.0 0.00 0.00 0.00 39 1013.7
20260507234501 88 14 5.0 11.0 0.00 0.00 0.00 39 1013.8
20260507233501 88 29 3.0 11.0 0.00 0.00 0.00 40 1013.8
20260507232618 88 18 3.0 12.0 0.00 0.00 0.00 40 1014.0
20260507232119 87 34 4.0 13.0 0.00 0.00 0.00 42 1014.0
20260507231619 88 35 8.0 13.0 0.00 0.00 0.00 40 1014.1
20260507231119 88 37 4.0 11.0 0.00 0.00 0.00 39 1014.1
20260507230619 88 1 6.0 11.0 0.00 0.00 0.00 38 1014.1
20260507230119 89 24 3.0 10.0 0.00 0.00 0.00 39 1014.1
20260507225619 89 19 5.0 12.0 0.00 0.00 0.00 40 1014.2
20260507225119 89 355 5.0 12.0 0.00 0.00 0.00 38 1014.3
20260507224619 88 349 5.0 11.0 0.00 0.00 0.00 38 1014.3
20260507224119 88 26 4.0 11.0 0.00 0.00 0.00 40 1014.4
20260507223619 88 360 4.0 12.0 0.00 0.00 0.00 40 1014.4
20260507223119 88 3 5.0 12.0 0.00 0.00 0.00 41 1014.5
20260507222619 87 336 7.0 10.0 0.00 0.00 0.00 40 1014.5
20260507222120 87 25 4.0 11.0 0.00 0.00 0.00 41 1014.6
20260507221618 87 48 4.0 11.0 0.00 0.00 0.00 40 1014.7
20260507221119 87 19 4.0 11.0 0.00 0.00 0.00 40 1014.7
20260507220619 87 24 5.0 9.0 0.00 0.00 0.00 40 1014.7
20260507220120 87 1 3.0 10.0 0.00 0.00 0.00 40 1014.8
20260507215619 87 31 3.0 12.0 0.00 0.00 0.00 41 1014.9
20260507215119 87 26 3.0 12.0 0.00 0.00 0.00 40 1015.0
20260507214619 86 16 4.0 12.0 0.00 0.00 0.00 41 1014.9
20260507214119 86 36 3.0 11.0 0.00 0.00 0.00 42 1015.0
20260507213618 86 24 5.0 10.0 0.00 0.00 0.00 44 1015.1
20260507212942 86 49 3.0 10.0 0.00 0.00 0.00 41 1015.3
20260507212442 86 22 4.0 12.0 0.00 0.00 0.00 43 1015.4
20260507211942 85 355 5.0 12.0 0.00 0.00 0.00 42 1015.5
20260507211442 86 19 5.0 11.0 0.00 0.00 0.00 44 1015.5
20260507210942 86 20 3.0 10.0 0.00 0.00 0.00 43 1015.5
20260507210443 86 19 5.0 13.0 0.00 0.00 0.00 43 1015.7
20260507205942 86 14 6.0 13.0 0.00 0.00 0.00 43 1015.7
20260507205442 86 358 3.0 10.0 0.00 0.00 0.00 41 1015.7
20260507204942 85 354 3.0 10.0 0.00 0.00 0.00 42 1015.8
20260507204442 85 21 4.0 10.0 0.00 0.00 0.00 43 1015.9
20260507203942 85 356 4.0 10.0 0.00 0.00 0.00 42 1016.0
20260507203442 85 339 5.0 9.0 0.00 0.00 0.00 42 1016.1
20260507202942 84 348 4.0 10.0 0.00 0.00 0.00 42 1016.1
20260507202442 84 7 5.0 13.0 0.00 0.00 0.00 43 1016.1
20260507201942 85 339 8.0 19.0 0.00 0.00 0.00 42 1016.2
20260507201442 85 352 6.0 19.0 0.00 0.00 0.00 42 1016.3
20260507200943 85 322 3.0 7.0 0.00 0.00 0.00 42 1016.4
20260507200442 84 0 0.0 8.0 0.00 0.00 0.00 45 1016.4
20260507195942 84 9 2.0 8.0 0.00 0.00 0.00 45 1016.5
20260507195442 84 10 3.0 7.0 0.00 0.00 0.00 44 1016.5
20260507194545 83 268 1.0 8.0 0.00 0.00 0.00 44 1016.6
20260507194045 83 13 1.0 10.0 0.00 0.00 0.00 44 1016.7
20260507193545 83 340 5.0 10.0 0.00 0.00 0.00 45 1016.8
20260507193045 82 298 4.0 10.0 0.00 0.00 0.00 45 1016.8
20260507192545 82 241 2.0 4.0 0.00 0.00 0.00 45 1016.9
20260507192046 81 350 1.0 7.0 0.00 0.00 0.00 46 1017.0
20260507191545 81 41 3.0 7.0 0.00 0.00 0.00 47 1017.2
20260507191045 82 341 2.0 6.0 0.00 0.00 0.00 47 1017.2
20260507190320 81 303 2.0 9.0 0.00 0.00 0.00 46 1017.3
20260507185824 81 325 3.0 9.0 0.00 0.00 0.00 47 1017.3
20260507185320 80 295 4.0 7.0 0.00 0.00 0.00 50 1017.3
20260507184820 79 335 3.0 7.0 0.00 0.00 0.00 52 1017.3
20260507183820 79 0 0.0 8.0 0.00 0.00 0.00 53 1017.5
20260507182823 79 321 2.0 8.0 0.00 0.00 0.00 50 1017.6
20260507182320 79 335 1.0 8.0 0.00 0.00 0.00 51 1017.6
20260507181820 79 350 2.0 6.0 0.00 0.00 0.00 52 1017.7
20260507180820 78 331 3.0 7.0 0.00 0.00 0.00 53 1017.8
20260507175401 76 344 4.0 8.0 0.00 0.00 0.00 55 1017.9
20260507174859 75 32 2.0 8.0 0.00 0.00 0.00 56 1018.0
20260507174400 76 53 2.0 10.0 0.00 0.00 0.00 55 1018.0
20260507173901 76 0 0.0 10.0 0.00 0.00 0.00 56 1018.0
20260507173359 75 333 1.0 10.0 0.00 0.00 0.00 57 1018.0
20260507172859 75 12 3.0 10.0 0.00 0.00 0.00 58 1018.0
20260507172401 74 56 1.0 9.0 0.00 0.00 0.00 59 1018.2
20260507171859 74 18 3.0 9.0 0.00 0.00 0.00 61 1018.2
20260507171359 73 51 3.0 11.0 0.00 0.00 0.00 61 1018.2
20260507170859 73 24 6.0 11.0 0.00 0.00 0.00 62 1018.2
20260507170040 73 346 3.0 9.0 0.00 0.00 0.00 62 1018.2
20260507165325 72 341 5.0 10.0 0.00 0.00 0.00 62 1018.2
20260507164826 72 2 4.0 11.0 0.00 0.00 0.00 62 1018.3
20260507164327 72 343 5.0 11.0 0.00 0.00 0.00 63 1018.3
20260507163826 71 355 6.0 10.0 0.00 0.00 0.00 63 1018.3
20260507163327 71 351 4.0 11.0 0.00 0.00 0.00 64 1018.4
20260507162826 71 326 6.0 11.0 0.00 0.00 0.00 65 1018.3
20260507162326 70 347 5.0 11.0 0.00 0.00 0.00 65 1018.4
20260507161825 70 331 4.0 10.0 0.00 0.00 0.00 66 1018.5
20260507161326 70 330 5.0 12.0 0.00 0.00 0.00 66 1018.4
20260507160825 69 323 6.0 12.0 0.00 0.00 0.00 67 1018.4
20260507160326 69 335 6.0 9.0 0.00 0.00 0.00 67 1018.4
20260507155825 69 344 4.0 11.0 0.00 0.00 0.00 68 1018.4
20260507155326 69 19 3.0 11.0 0.00 0.00 0.00 68 1018.4
20260507154826 68 345 4.0 11.0 0.00 0.00 0.00 69 1018.5
20260507154326 68 329 5.0 11.0 0.00 0.00 0.00 69 1018.5
20260507153826 68 320 7.0 10.0 0.00 0.00 0.00 70 1018.6
20260507153326 67 320 5.0 10.0 0.00 0.00 0.00 71 1018.5
20260507152826 67 324 5.0 11.0 0.00 0.00 0.00 72 1018.4
20260507152326 66 331 7.0 12.0 0.00 0.00 0.00 73 1018.4
20260507151826 66 323 7.0 12.0 0.00 0.00 0.00 73 1018.5
20260507151325 65 332 7.0 11.0 0.00 0.00 0.00 73 1018.5
20260507150830 65 318 7.0 11.0 0.00 0.00 0.00 74 1018.5
20260507150327 65 325 4.0 10.0 0.00 0.00 0.00 74 1018.6
20260507145826 64 328 4.0 10.0 0.00 0.00 0.00 74 1018.6
20260507145326 64 332 5.0 10.0 0.00 0.00 0.00 74 1018.6
20260507144826 63 329 6.0 10.0 0.00 0.00 0.00 74 1018.6
20260507144325 63 325 5.0 9.0 0.00 0.00 0.00 74 1018.5
20260507143826 63 320 4.0 8.0 0.00 0.00 0.00 75 1018.6
20260507143327 62 311 3.0 5.0 0.00 0.00 0.00 75 1018.5
20260507142826 62 290 3.0 5.0 0.00 0.00 0.00 75 1018.5
20260507142325 62 277 3.0 4.0 0.00 0.00 0.00 75 1018.5
20260507141825 61 272 3.0 4.0 0.00 0.00 0.00 75 1018.4
20260507141326 61 263 3.0 4.0 0.00 0.00 0.00 75 1018.4
20260507140826 60 263 3.0 4.0 0.00 0.00 0.00 75 1018.3
20260507140327 60 258 2.0 4.0 0.00 0.00 0.00 74 1018.3
20260507135825 60 248 2.0 4.0 0.00 0.00 0.00 74 1018.3
20260507134849 59 249 3.0 4.0 0.00 0.00 0.00 75 1018.2
20260507134350 59 250 2.0 4.0 0.00 0.00 0.00 75 1018.2
20260507133849 58 251 2.0 4.0 0.00 0.00 0.00 75 1018.2
20260507133349 58 0 0.0 4.0 0.00 0.00 0.00 76 1018.1
20260507132848 58 250 3.0 5.0 0.00 0.00 0.00 75 1018.0
20260507132349 57 255 2.0 5.0 0.00 0.00 0.00 75 1018.0
20260507131850 57 250 3.0 7.0 0.00 0.00 0.00 75 1017.9
20260507131348 57 242 4.0 7.0 0.00 0.00 0.00 75 1017.9
20260507130849 57 236 4.0 6.0 0.00 0.00 0.00 75 1017.8
20260507130351 57 230 4.0 6.0 0.00 0.00 0.00 75 1017.8
20260507125849 57 242 3.0 8.0 0.00 0.00 0.00 75 1017.8
20260507125349 57 240 4.0 8.0 0.00 0.00 0.00 75 1017.8
20260507124849 57 241 4.0 7.0 0.00 0.00 0.00 75 1017.7
20260507124349 57 246 4.0 6.0 0.00 0.00 0.00 74 1017.6
20260507123849 57 249 3.0 5.0 0.00 0.00 0.00 74 1017.7
20260507123349 57 244 3.0 5.0 0.00 0.00 0.00 74 1017.7
20260507122849 57 234 4.0 6.0 0.00 0.00 0.00 74 1017.6
20260507122349 57 230 4.0 6.0 0.00 0.00 0.00 74 1017.5
20260507121849 57 218 4.0 6.0 0.00 0.00 0.00 74 1017.6
20260507121349 57 226 4.0 7.0 0.00 0.00 0.00 73 1017.6
20260507120849 57 238 4.0 8.0 0.00 0.00 0.00 73 1017.6
20260507120348 57 243 6.0 8.0 0.00 0.00 0.00 73 1017.6
20260507115354 57 243 5.0 8.0 0.00 0.00 0.00 73 1017.6
20260507114854 57 239 5.0 7.0 0.00 0.00 0.00 73 1017.6
20260507114354 58 239 5.0 6.0 0.00 0.00 0.00 73 1017.6
20260507113854 58 230 5.0 6.0 0.00 0.00 0.00 73 1017.8
20260507113108 58 236 4.0 6.0 0.00 0.00 0.00 73 1017.7
20260507112606 58 239 4.0 6.0 0.00 0.00 0.00 73 1017.7
20260507112105 58 240 4.0 8.0 0.00 0.00 0.00 73 1017.7
20260507111605 58 238 5.0 9.0 0.00 0.00 0.00 73 1017.7
20260507111106 58 238 6.0 9.0 0.00 0.00 0.00 73 1017.7
20260507110606 58 237 5.0 8.0 0.00 0.00 0.00 72 1017.8
20260507110105 58 253 3.0 6.0 0.00 0.00 0.00 72 1017.8
20260507105105 58 236 5.0 6.0 0.00 0.00 0.00 72 1017.8
20260507104605 58 233 5.0 8.0 0.00 0.00 0.00 72 1017.9
20260507104105 58 235 5.0 8.0 0.00 0.00 0.00 72 1017.8
20260507103605 58 234 4.0 6.0 0.00 0.00 0.00 71 1017.8
20260507103105 58 238 4.0 6.0 0.00 0.00 0.00 71 1017.8
20260507102607 58 236 4.0 6.0 0.00 0.00 0.00 71 1017.8
20260507102105 58 232 3.0 4.0 0.00 0.00 0.00 71 1017.8
20260507101605 58 230 2.0 4.0 0.00 0.00 0.00 71 1017.8
20260507100647 58 230 3.0 5.0 0.00 0.00 0.00 71 1017.8
20260507100146 59 234 4.0 5.0 0.00 0.00 0.00 71 1017.8
20260507095646 59 230 4.0 6.0 0.00 0.00 0.00 71 1017.8
20260507095146 59 236 4.0 6.0 0.00 0.00 0.00 71 1017.8
20260507094646 59 233 3.0 5.0 0.00 0.00 0.00 70 1017.8
20260507093645 59 234 4.0 6.0 0.00 0.00 0.00 70 1017.9
20260507093145 59 232 4.0 6.0 0.00 0.00 0.00 70 1017.9
20260507092646 60 228 4.0 8.0 0.00 0.00 0.00 70 1018.0
20260507092146 60 231 5.0 8.0 0.00 0.00 0.00 70 1018.1
20260507091646 60 234 4.0 6.0 0.00 0.00 0.00 70 1018.1
20260507091145 60 236 5.0 6.0 0.00 0.00 0.00 69 1018.1